183  
ASUS41 KBGM 280410  
RWRBGM  
 
REGIONAL WEATHER ROUNDUP  
NATIONAL WEATHER SERVICE BINGHAMTON NY  
1100 PM EST SUN NOV 27 2022  
 
NOTE: "FAIR" INDICATES FEW OR NO CLOUDS BELOW 12,000 FEET WITH NO  
SIGNIFICANT WEATHER AND/OR S TO VISIBILITY
.  
 
* = STATION(S) THAT DOES NOT REPORT PRECIPITATION, SUCH AS RAIN,  
SNOW, ETC, ALSO NO THUNDER OR FOG.
 
 
NYZ009-015>018-022>025-036-037-044>046-055>057-062-280500   
..CENTRAL NEW YORK
 
 
 
CITY SKY/WX TMP DP RH WIND PRES REMARKS
 
BINGHAMTON PTCLDY 43 43 100 SW8 29.35S  
CORTLAND CLOUDY 45 43 93 SW7 29.35R  
DANSVILLE CLOUDY 51 43 74 MISG 29.38R  
ELMIRA CLOUDY 42 41 96 CALM 29.36S  
ENDICOTT MOCLDY 43 43 100 CALM 29.36 FOG  
ITHACA CLOUDY 48 45 89 SW12 29.36R  
HAMILTON CLOUDY 45 43 93 SW5 29.33R  
MONTICELLO MOCLDY 41 41 100 W6 29.39R FOG  
NORWICH CLOUDY 45 43 93 SW5 29.37S  
ONEONTA N/A 45 45 100 W14G21 29.34R  
PENN YAN CLOUDY 50 44 80 W17 29.35R  
ROME CLOUDY 42 41 96 CALM 29.31R  
SENECA FALLS CLOUDY 50 43 76 W17 29.35R  
SIDNEY MOCLDY 46 45 93 W6 29.36S  
SKANEATELES CLOUDY 48 48 100 SW12 29.33R  
SYRACUSE CLOUDY 52 46 80 SW20 29.31R  

 
 
PAZ038>040-043-044-047-048-072-280500   
..NORTHEAST PENNSYLVANIA
 
 
 
CITY SKY/WX TMP DP RH WIND PRES REMARKS
 
HAZLETON CLOUDY 46 43 87 SW6 29.47R  
SCRANTON N/A N/A N/A N/A MISG 29.42R  

 

 
KEY  
WCI = WIND CHILL INDEX  
VSB = VISIBILITY  
HX = HEAT INDEX  

 
 
 
CLICK HERE TO GO TO PREVIOUS BULLETINS.

The Nexlab NY Page
The Nexlab PA Page Main Text Page